Showing default

QIANFAN-60, 62790

Orbit data source: Space-Track

QIANFAN-60, 62790 is a Chinese payload satellite in LEO that was launched on Thu, 23 Jan 2025 UTC via a CHANG ZHENG 6A launch vehicle from the Taiyaun Space Center, China (TSC). Payload-class satellites include a variety of spacecraft equipped with specific instruments for various scientific and technological missions. These include communications satellites like Starlink; space stations such as the ISS; scientific satellites like the Hubble; Earth observation satellites from companies like Planet Labs, Umbra, and HawkEye 360; GPS; miniature CubeSats for education and research; and military/defense satellites.

Loading next visibility...
Identifier
62790, 2025-016F
Orbit
LEO
Country
Flag of CNCN / PRC
Related business
Manufacturer
SECM
Mission
Operational Commercial Communications
Bus & Motor
QIANFAN, Unknown motor
Mass
267 kg wet, ~267 kg dry
Launch date (UTC)
2025-01-23 (8 months ago)
Launch vehicle
CHANG ZHENG 6A
Launch site
Taiyaun Space Center, China (TSC)
Object type
Payload
Rocket body
Debris
Shape & HBR
Box + 1 Pan, 5.0 m
Radar Cross Section
13.200 m², Large (>1 m²)

Expand to show TLE details & history
Last TLE update: 13 hours ago

TLE from 13 hours ago
0 QIANFAN-60
1 62790U 25016F   25258.88226735  .00000047  00000-0  52937-4 0  9992
2 62790  88.9752 112.1765 0013755 235.1113 124.8747 13.52522877 35367
Epoch: 2025-09-15T21:10Z
TLE epoch observation values (Epoch: 2025-09-15T21:10:27.899Z)
Latitude
0.00003°
Longitude
159.47971°
Altitude
1,071.809 km
Speed
7.313 km/s
True Right ascension
07h 28m 42s
True Declination
0° 00' 00"
Sunlit
Object was in daylight at epoch
Visualization orbit readout
Latitude
Unknown
Longitude
Unknown
Altitude
Unknown
Speed
Unknown
Apparent Right ascension
Unknown
Apparent Declination
Unknown
Sunlit
N/A
Visualization observer readout
Local Sidereal Time
02:37:20
Azimuth
Unknown
Elevation
Unknown
Doppler factor
Unknown
Orbital elements
Apogee altitude
1,070.271 km
Perigee altitude
1,049.808 km
Semi-major axis
7,438.177 km
Eccentricity
0.00138
Inclination
88.9752°
RAAN
112.1765°
Arg. of periapsis
235.1113°
True anomaly
125.00389°
Mean anomaly
124.8747°
Eccentric anomaly
124.93931°
Mean motion
3.38332 °/min
Orbital period
106.4 mins
BSTAR
0.000052937
Loading maneuver chart data...
Computing Atmospheric mass density...
Loading historical data...
Loading historical data...
Loading historical data...
Loading historical data...
Loading historical data...
Loading historical data...
Loading historical data...

Documentation

Showing up to 5 results
|